[[{"header":{"parameterUnit":"m.s-1","parameterCategory":2,"la1":30.2991,"la2":30.254,"lo1":-89.0895,"lo2":-89.0444,"dy":0.0017,"dx":0.0017,"nx":28,"ny":28,"refTime":"2023-08-07T03:00:00:Z","depth":"0","parameterNumber":2,"parameterNumberName":"U-component_of_CURRENTS"},"data":[0,0,0,0,0,0,0,0,0,0,0,0,0,0,0,0,0,0,0,0,0,0,0,0,0,0,0,0,0,0,0,0,0,0,0,0,0,0,0,0,0,0,0,0,0,0,0,0,0,0,0,0,0,0,0,0,0,0,0.2096,0.2097,0,0.2201,0.2203,0.2204,0.2257,0.2257,0.2256,0.2256,0.2408,0.2412,0.2416,0,0,0,0,0,0,0,0,0,0,0,0,0,0.202,0.2021,0.2096,0.2097,0.2098,0.2201,0.2203,0.2204,0.2257,0.2257,0.2256,0.2256,0.2406,0.2411,0.2416,0,0,0,0,0,0,0,0,0,0,0,0,0,0.2085,0.2021,0.2096,0.2133,0.2138,0.22,0.2203,0.2205,0.2257,0.2257,0.2256,0.2256,0.2404,0.2411,0.2417,0.2467,0,0,0.2437,0.244,0,0,0,0,0,0,0,0,0.2081,0.2088,0.2127,0.2131,0.2136,0.2212,0.2231,0.2294,0.2257,0.2216,0.2256,0.2256,0.2344,0.2356,0.2382,0.2475,0.2481,0.2438,0.2442,0.2444,0.2446,0,0,0,0,0,0,0,0.2076,0.2084,0.2141,0.2128,0.2133,0.2172,0.2181,0.2244,0.2286,0.222,0.2223,0.2228,0.2347,0.2375,0.2386,0.2483,0.2438,0.2443,0.2447,0.245,0.2673,0.2675,0,0,0,0,0,0,0.2052,0.208,0.2138,0.2144,0.2102,0.2173,0.2183,0.2191,0.2284,0.2296,0.2229,0.223,0.2364,0.2378,0.2391,0.2501,0.2444,0.245,0.2454,0.2671,0.2673,0.2675,0,0,0,0,0,0,0.205,0.2056,0.2134,0.2111,0.2123,0.2174,0.2184,0.2193,0.2228,0.229,0.2303,0.2253,0.2364,0.2382,0.245,0.2505,0.2453,0.2459,0.2668,0.2671,0.2674,0.2692,0,0,0,0,0,0,0.2048,0.2055,0.2068,0.2109,0.2123,0.2176,0.2184,0.2196,0.223,0.2233,0.2315,0.2328,0.2365,0.244,0.2456,0.2513,0.2464,0.2666,0.267,0.2673,0.2689,0.2695,0.2701,0,0,0,0,0,0.2045,0.2064,0.2068,0.2076,0.2134,0.2176,0.2188,0.2225,0.2231,0.2254,0.2301,0.2326,0.2476,0.2446,0.2465,0.2526,0.2664,0.2669,0.2673,0.2686,0.2694,0.2701,0,0,0,0,0,0,0.2071,0.2072,0.2078,0.2106,0.2137,0.2184,0.2204,0.223,0.2287,0.2286,0.2345,0.2362,0.2458,0.248,0.2445,0.2601,0.2578,0.2587,0.2582,0.259,0.2595,0.2559,0.247,0,0,0,0,0,0.2072,0.2069,0.2094,0.2122,0.2123,0.2164,0.2189,0.2211,0.2257,0.2282,0.2337,0.2403,0.2493,0.2525,0.2601,0.2669,0.2695,0.2723,0.2729,0.2734,0.2718,0.2809,0.2821,0.269,0.269,0.269,0,0,0.2089,0.2093,0.2094,0.2124,0.2142,0.2173,0.2179,0.2208,0.2254,0.229,0.2367,0.2434,0.252,0.2611,0.2655,0.2631,0.2787,0.2739,0.2743,0.2724,0.2815,0.2827,0.2839,0.2693,0.2693,0.2692,0,0,0.2124,0.2118,0.2125,0.2146,0.2166,0.2184,0.219,0.2232,0.2264,0.2335,0.2395,0.2471,0.2584,0.2657,0.2711,0.2789,0.2828,0.283,0.2818,0.2908,0.2919,0.2929,0.2979,0.2993,0.2817,0.2817,0.2817,0,0.2153,0.2166,0.2144,0.2168,0.2186,0.2186,0.2218,0.2257,0.2328,0.2368,0.2356,0.2551,0.2608,0.2749,0.2767,0.2805,0.2845,0.2784,0.2914,0.2925,0.2934,0.2984,0.2999,0.2818,0.2818,0.2818,0.2818,0,0.2194,0.2212,0.2217,0.2232,0.2251,0.2274,0.2299,0.2336,0.2358,0.2409,0.2532,0.2603,0.2715,0.2759,0.278,0.2902,0.2906,0.2924,0.2889,0.2948,0.2997,0.3012,0.282,0.282,0.2819,0.2819,0,0,0.2246,0.2243,0.2251,0.2259,0.228,0.2297,0.2353,0.2413,0.2463,0.2526,0.2609,0.274,0.2766,0.2826,0.2883,0.293,0.3027,0.2938,0.2942,0.2973,0.3207,0.3146,0.3157,0.3075,0.3078,0.308,0.3212,0,0.2292,0.2323,0.232,0.2364,0.2369,0.2382,0.2437,0.2492,0.2535,0.2612,0.2689,0.2788,0.2802,0.2848,0.2912,0.3007,0.3069,0.2988,0.3155,0.3159,0.3087,0.3174,0.303,0.313,0.3227,0.323,0.3232,0,0.2338,0.2345,0.2377,0.24,0.2406,0.2438,0.2493,0.2549,0.2648,0.2687,0.278,0.2835,0.294,0.2922,0.3103,0.3054,0.3128,0.3177,0.3185,0.3125,0.3128,0.3089,0.3155,0.2983,0.3256,0.3254,0.3252,0,0.235,0.2389,0.2402,0.2414,0.2445,0.2471,0.2497,0.2576,0.2623,0.2727,0.2762,0.2905,0.296,0.3082,0.3165,0.3155,0.333,0.3345,0.3367,0.3362,0.3268,0.325,0.3169,0.3479,0.3479,0.3478,0.3478,0,0.2386,0.2398,0.2404,0.2415,0.2439,0.2469,0.252,0.257,0.2654,0.2714,0.2796,0.286,0.2997,0.3101,0.3194,0.3314,0.3375,0.3373,0.3403,0.3269,0.3251,0.3117,0.3056,0.3483,0.3482,0.3481,0.348,0,0.2379,0.2391,0.2396,0.2425,0.2434,0.2445,0.2494,0.2541,0.2619,0.2692,0.2719,0.2844,0.2975,0.3097,0.328,0.3338,0.3366,0.3493,0.3296,0.3299,0.3145,0.3092,0.3061,0.3025,0.3553,0.3553,0.3552,0,0.2366,0.2372,0.2381,0.237,0.2373,0.2398,0.2423,0.2508,0.2555,0.2682,0.2716,0.2842,0.2937,0.3158,0.3287,0.345,0.3341,0.3376,0.3332,0.3112,0.3079,0.3014,0.2982,0.3223,0.322,0.3218,0.3216,0,0.2334,0.2337,0.2334,0.2316,0.2321,0.2338,0.2379,0.2419,0.253,0.2588,0.2688,0.2768,0.2973,0.3059,0.3228,0.3312,0.3181,0.3328,0.3171,0.2864,0.2721,0.2706,0.3133,0.3193,0.3195,0.3197,0.3198,0.3199,0.229,0.2276,0.2271,0.2243,0.2249,0.2268,0.2274,0.2337,0.2401,0.2472,0.2608,0.2662,0.2775,0.3011,0.3059,0.2977,0.3097,0.2898,0.2872,0.2842,0.2728,0.3076,0.3122,0.3123,0.3125,0.3126,0.3127,0,0.222,0.2218,0.2197,0.2167,0.2141,0.2179,0.2231,0.223,0.2269,0.2342,0.2415,0.2447,0.2504,0.2562,0.2583,0.2503,0.2493,0.2417,0.2263,0.228,0.2639,0.2537,0.2368,0.2368,0.2369,0.2369,0.2369,0.2369,0.2184,0.2144,0.2134,0.2059,0.2047,0.202,0.204,0.2044,0.2072,0.2048,0.2026,0.2082,0.2119,0.2095,0.1976,0.1967,0.1859,0.1829,0.1884,0.2047,0.2088,0.2127,0.2012,0.1737,0.1736,0.1458,0.1455,0.1453]},{"header":{"parameterUnit":"m.s-1","parameterCategory":2,"la1":30.2991,"la2":30.254,"lo1":-89.0895,"lo2":-89.0444,"dy":0.0017,"dx":0.0017,"nx":28,"ny":28,"refTime":"2023-08-07T03:00:00:Z","depth":"0","parameterNumber":3,"parameterNumberName":"V-component_of_CURRENTS"},"data":[0,0,0,0,0,0,0,0,0,0,0,0,0,0,0,0,0,0,0,0,0,0,0,0,0,0,0,0,0,0,0,0,0,0,0,0,0,0,0,0,0,0,0,0,0,0,0,0,0,0,0,0,0,0,0,0,0,0,0.0164,0.0164,0,0.0149,0.0149,0.0149,0.0098,0.0097,0.0096,0.0095,0.0007,0.0005,0.0004,0,0,0,0,0,0,0,0,0,0,0,0,0,0.0093,0.0095,0.0164,0.0164,0.0164,0.0149,0.0149,0.0149,0.0098,0.0097,0.0096,0.0095,0.0007,0.0006,0.0004,0,0,0,0,0,0,0,0,0,0,0,0,0,0.0104,0.0095,0.0164,0.0138,0.0136,0.015,0.0149,0.0149,0.0098,0.0097,0.0095,0.0094,0.0008,0.0006,0.0004,0.0019,0,0,-0.0003,-0.0004,0,0,0,0,0,0,0,0,0.0103,0.0106,0.0142,0.014,0.0137,0.0126,0.0092,0.0102,0.0099,0.011,0.0095,0.0093,0.0042,0.0037,0.0036,0.0015,0.0011,-0.0003,-0.0004,-0.0005,-0.0006,0,0,0,0,0,0,0,0.0103,0.0106,0.0156,0.0142,0.0139,0.0109,0.0109,0.0093,0.0082,0.0109,0.0106,0.0108,0.004,0.0038,0.0033,0.001,-0.0003,-0.0005,-0.0006,-0.0007,0.0011,0.0013,0,0,0,0,0,0,0.0114,0.0106,0.0156,0.0156,0.0119,0.0112,0.0112,0.0129,0.0083,0.0076,0.0109,0.0106,0.0043,0.0036,0.003,0.0052,-0.0005,-0.0007,-0.0009,0.001,0.0012,0.0014,0,0,0,0,0,0,0.0112,0.0119,0.0157,0.0131,0.0134,0.0115,0.0135,0.013,0.0126,0.0085,0.0075,0.0111,0.0041,0.0033,0.0024,0.0048,-0.0008,-0.001,0.0007,0.001,0.0013,0.0093,0,0,0,0,0,0,0.0111,0.0119,0.0134,0.0133,0.0136,0.017,0.0136,0.0131,0.0131,0.0126,0.0083,0.0073,0.0039,0.0027,0.0021,0.0044,-0.0012,0.0005,0.0009,0.0012,0.0088,0.0098,0.0106,0,0,0,0,0,0.0108,0.014,0.0136,0.0142,0.0159,0.0171,0.017,0.0149,0.0133,0.0139,0.0113,0.0075,0.0044,0.0027,0.002,0.0042,0.0003,0.0008,0.0012,0.0084,0.0096,0.0106,0,0,0,0,0,0,0.0101,0.0138,0.0133,0.0169,0.0171,0.0163,0.0168,0.0158,0.0144,0.0135,0.0093,0.0082,0.0085,0.0059,0.0041,0.006,0.002,0.0023,0.0078,0.0089,0.0098,0.0099,-0.0014,0,0,0,0,0,0.0113,0.0154,0.0164,0.0188,0.0193,0.0182,0.0184,0.0174,0.0163,0.0155,0.0131,0.0109,0.0099,0.0088,0.0073,0.0082,0.0051,0.0095,0.0105,0.0112,0.0111,0.0091,0.0098,0.0027,0.0027,0.0027,0,0,0.011,0.014,0.0156,0.0191,0.0188,0.0206,0.0179,0.0188,0.0201,0.0148,0.0157,0.0138,0.011,0.012,0.0119,0.0097,0.0121,0.0118,0.0124,0.0118,0.0096,0.0103,0.0109,0.003,0.0029,0.0029,0,0,0.0129,0.0157,0.0191,0.0206,0.0221,0.0224,0.0231,0.0232,0.0229,0.0242,0.021,0.0209,0.0193,0.0181,0.0172,0.0226,0.0171,0.0225,0.0269,0.025,0.0255,0.0259,0.0242,0.0244,0.0229,0.0229,0.0229,0,0.0121,0.0171,0.0196,0.0229,0.0243,0.0237,0.0259,0.0266,0.0264,0.0266,0.0253,0.0246,0.0224,0.0234,0.0256,0.0245,0.0223,0.0226,0.0261,0.0264,0.0266,0.0247,0.0248,0.0233,0.0233,0.0232,0.0232,0,0.016,0.0197,0.0216,0.0266,0.0286,0.0305,0.0321,0.0334,0.0335,0.0337,0.0349,0.033,0.0319,0.0326,0.0306,0.0324,0.0299,0.0274,0.0228,0.0278,0.0256,0.0255,0.0239,0.0238,0.0236,0.0235,0,0,0.0156,0.0229,0.0236,0.0263,0.0308,0.0328,0.036,0.0384,0.0401,0.0407,0.0422,0.0428,0.0411,0.0401,0.0381,0.0375,0.0386,0.0339,0.0336,0.0315,0.0344,0.0329,0.0326,0.0362,0.0362,0.0362,0.0325,0,0.0172,0.0237,0.0275,0.0328,0.0358,0.0378,0.0411,0.0433,0.0448,0.0464,0.0453,0.046,0.0442,0.0438,0.0433,0.0393,0.0386,0.0398,0.0304,0.0302,0.0276,0.0326,0.039,0.0362,0.0324,0.0323,0.0323,0,0.0202,0.0244,0.0296,0.0364,0.0378,0.041,0.0458,0.0487,0.051,0.0516,0.0521,0.0507,0.0506,0.048,0.044,0.0446,0.0404,0.0375,0.0372,0.0326,0.0286,0.0304,0.0362,0.0325,0.0322,0.0322,0.0322,0,0.0194,0.0266,0.0309,0.0331,0.04,0.0424,0.0458,0.0496,0.0522,0.0544,0.0555,0.0547,0.0538,0.0494,0.0446,0.0436,0.0394,0.0366,0.0315,0.0312,0.0332,0.0332,0.0335,0.0335,0.0335,0.0335,0.0335,0,0.0214,0.0252,0.0307,0.0333,0.0386,0.0428,0.048,0.0511,0.0543,0.0574,0.0575,0.0593,0.0541,0.0513,0.0458,0.0392,0.0399,0.033,0.0306,0.0364,0.0367,0.0305,0.0275,0.0334,0.0334,0.0334,0.0335,0,0.0216,0.0248,0.0303,0.0365,0.0388,0.0427,0.0498,0.0533,0.0559,0.0595,0.0601,0.0618,0.059,0.0536,0.0467,0.0408,0.0321,0.0316,0.0392,0.0377,0.0282,0.0255,0.0155,0.0141,0.0248,0.0248,0.0247,0,0.0227,0.0253,0.0321,0.0355,0.0389,0.0446,0.0488,0.0535,0.0567,0.0615,0.0629,0.0625,0.0647,0.0554,0.0458,0.0363,0.0308,0.0337,0.033,0.0296,0.0247,0.0178,0.0169,0.0394,0.0394,0.0395,0.0396,0,0.0247,0.0266,0.0308,0.0372,0.0422,0.0484,0.0539,0.0565,0.0613,0.0657,0.0711,0.0739,0.0666,0.0631,0.0499,0.0427,0.0317,0.0344,0.0298,0.0355,0.0292,0.0262,0.0393,0.0401,0.0401,0.04,0.04,0.04,0.0253,0.0291,0.0339,0.0402,0.0456,0.0519,0.0562,0.0622,0.0691,0.0768,0.0784,0.0871,0.0798,0.0645,0.0532,0.0375,0.0318,0.0341,0.0308,0.0238,0.0234,0.0372,0.0354,0.0353,0.0352,0.0352,0.0351,0,0.0263,0.0313,0.0372,0.0443,0.049,0.0523,0.0597,0.0641,0.0727,0.0847,0.0923,0.0991,0.0891,0.0743,0.0516,0.0386,0.0317,0.0317,0.0268,0.0259,0.0392,0.0411,0.0418,0.0418,0.0418,0.0418,0.0418,0.0418,0.0274,0.033,0.037,0.0453,0.05,0.0558,0.0599,0.0685,0.0784,0.0958,0.1077,0.1157,0.1086,0.0666,0.0418,0.0363,0.0248,0.0212,0.0129,0.0268,0.0268,0.0269,0.0281,0.026,0.026,0.0034,0.0032,0.0031]}],[{"header":{"parameterUnit":"m.s-1","parameterCategory":2,"la1":30.2991,"la2":30.254,"lo1":-89.0895,"lo2":-89.0444,"dy":0.0017,"dx":0.0017,"nx":28,"ny":28,"refTime":"2023-08-07T03:00:00:Z","depth":"2","parameterNumber":2,"parameterNumberName":"U-component_of_CURRENTS"},"data":[0,0,0,0,0,0,0,0,0,0,0,0,0,0,0,0,0,0,0,0,0,0,0,0,0,0,0,0,0,0,0,0,0,0,0,0,0,0,0,0,0,0,0,0,0,0,0,0,0,0,0,0,0,0,0,0,0,0,0.0643,0.0644,0,0.0649,0.0648,0.0647,0.0689,0.0691,0.0693,0.0696,0.0866,0.0868,0.087,0,0,0,0,0,0,0,0,0,0,0,0,0,0.049,0.0492,0.0643,0.0644,0.0646,0.0649,0.0648,0.0646,0.0688,0.0691,0.0694,0.0697,0.0865,0.0868,0.0871,0,0,0,0,0,0,0,0,0,0,0,0,0,0.0518,0.0493,0.0643,0.0678,0.0682,0.0649,0.0648,0.0646,0.0687,0.0691,0.0695,0.0698,0.0864,0.0868,0.0871,0.0821,0,0,0.0882,0.0883,0,0,0,0,0,0,0,0,0.0517,0.0522,0.0671,0.0676,0.0681,0.0685,0.0657,0.0718,0.0687,0.067,0.0696,0.07,0.0828,0.0834,0.0804,0.0829,0.0836,0.0882,0.0884,0.0886,0.0887,0,0,0,0,0,0,0,0.0515,0.0521,0.063,0.0673,0.0679,0.0634,0.0641,0.0666,0.072,0.0671,0.0678,0.0701,0.083,0.08,0.0809,0.0839,0.0882,0.0885,0.0887,0.0888,0.101,0.1011,0,0,0,0,0,0,0.055,0.052,0.063,0.0632,0.0622,0.0635,0.0643,0.0667,0.0716,0.073,0.0698,0.0704,0.0792,0.0805,0.0816,0.0918,0.0886,0.0889,0.0891,0.1009,0.101,0.1011,0,0,0,0,0,0,0.0546,0.0559,0.063,0.0587,0.0596,0.0637,0.0662,0.0666,0.0688,0.0738,0.0753,0.0725,0.0796,0.0811,0.0904,0.092,0.089,0.0894,0.1007,0.1009,0.1011,0.1024,0,0,0,0,0,0,0.0541,0.0557,0.0577,0.059,0.06,0.0637,0.066,0.0664,0.0701,0.0709,0.0764,0.078,0.08,0.0899,0.0907,0.0925,0.0896,0.1006,0.1008,0.101,0.1022,0.1025,0.1029,0,0,0,0,0,0.0536,0.0604,0.0577,0.0591,0.0629,0.0638,0.0636,0.0666,0.07,0.0699,0.0771,0.0781,0.0918,0.0903,0.0913,0.0931,0.1005,0.1007,0.101,0.102,0.1025,0.1029,0,0,0,0,0,0,0.0544,0.0615,0.0588,0.0667,0.0647,0.0652,0.07,0.0684,0.0725,0.0768,0.0803,0.0823,0.0902,0.0919,0.0901,0.0973,0.0959,0.0963,0.0963,0.0968,0.0971,0.1031,0.0899,0,0,0,0,0,0.0547,0.0616,0.0622,0.0667,0.0695,0.0683,0.0695,0.0692,0.0737,0.0757,0.081,0.0868,0.0902,0.0945,0.0978,0.1023,0.106,0.104,0.1044,0.1046,0.1102,0.1154,0.1168,0.102,0.102,0.102,0,0,0.0605,0.0606,0.0674,0.0671,0.0688,0.0718,0.07,0.0742,0.0749,0.0774,0.0862,0.0887,0.0918,0.0971,0.1007,0.1002,0.1102,0.105,0.1052,0.1108,0.1158,0.1173,0.1186,0.1021,0.1021,0.1021,0,0,0.0657,0.0718,0.0763,0.0758,0.0755,0.077,0.0791,0.0812,0.082,0.0859,0.0891,0.0953,0.1002,0.1036,0.1052,0.11,0.1115,0.109,0.1164,0.1212,0.1225,0.1237,0.1277,0.1293,0.1095,0.1095,0.1095,0,0.0702,0.0732,0.0767,0.0756,0.0798,0.0811,0.0844,0.0844,0.0875,0.0898,0.091,0.1013,0.1036,0.1106,0.1125,0.1111,0.114,0.1138,0.1218,0.1231,0.1243,0.1281,0.1298,0.1096,0.1096,0.1096,0.1096,0,0.0736,0.0775,0.0825,0.0838,0.0859,0.0921,0.0933,0.0958,0.0993,0.0989,0.1066,0.1099,0.1173,0.1157,0.1162,0.125,0.1242,0.1208,0.1206,0.1259,0.1295,0.1312,0.1098,0.1097,0.1097,0.1097,0,0,0.0856,0.086,0.0885,0.0887,0.0925,0.0959,0.1,0.1042,0.1085,0.1118,0.1182,0.1237,0.1275,0.1301,0.1303,0.1348,0.1434,0.133,0.1332,0.1371,0.1547,0.1399,0.1404,0.1409,0.1413,0.1416,0.1527,0,0.0885,0.0897,0.0896,0.0978,0.1029,0.1053,0.1078,0.1098,0.1138,0.1207,0.1247,0.1327,0.1318,0.1363,0.1411,0.143,0.1488,0.1409,0.1493,0.1497,0.1359,0.1422,0.126,0.1334,0.1545,0.1548,0.155,0,0.0913,0.0923,0.0985,0.1029,0.1064,0.1112,0.1207,0.1221,0.1283,0.1298,0.1395,0.1434,0.1547,0.1511,0.1627,0.1577,0.1598,0.16,0.1603,0.149,0.1383,0.1322,0.1359,0.158,0.1577,0.1575,0.1573,0,0.0943,0.1008,0.1069,0.1096,0.1136,0.1175,0.1236,0.1275,0.1283,0.141,0.1447,0.1568,0.1639,0.1702,0.1741,0.1695,0.1846,0.1762,0.1657,0.1646,0.1544,0.1516,0.187,0.187,0.187,0.1869,0.1869,0,0.0969,0.1035,0.1109,0.1135,0.1243,0.1242,0.132,0.1373,0.1408,0.1461,0.1542,0.1611,0.1694,0.1775,0.1798,0.1799,0.1902,0.1714,0.1679,0.1536,0.1508,0.1751,0.1735,0.1873,0.1873,0.1872,0.1871,0,0.0988,0.1012,0.112,0.1214,0.1238,0.135,0.1385,0.1407,0.1454,0.1532,0.1585,0.1671,0.1785,0.1847,0.1942,0.1846,0.1873,0.1852,0.1676,0.1616,0.1623,0.1607,0.1723,0.1719,0.1716,0.1713,0.1711,0,0.099,0.1021,0.1204,0.1253,0.1314,0.1412,0.1415,0.1456,0.147,0.1567,0.161,0.174,0.1791,0.1854,0.1789,0.1791,0.1883,0.1586,0.1447,0.1661,0.1616,0.1605,0.1594,0.1323,0.1317,0.1313,0.1309,0,0.0989,0.108,0.1167,0.1304,0.1377,0.1422,0.1464,0.1461,0.1498,0.1546,0.1633,0.1684,0.1727,0.1626,0.1579,0.1549,0.1557,0.1485,0.1815,0.1349,0.1282,0.1237,0.1241,0.127,0.1274,0.1277,0.1279,0.1281,0.1022,0.1139,0.1233,0.1375,0.1427,0.1428,0.141,0.1419,0.1433,0.1469,0.1538,0.1518,0.1369,0.12,0.1215,0.1254,0.1302,0.1185,0.12,0.122,0.1118,0.1044,0.0972,0.0974,0.0976,0.0977,0.0979,0,0.1103,0.1178,0.1252,0.1387,0.1389,0.1434,0.1402,0.1329,0.1333,0.1382,0.1389,0.1036,0.091,0.0951,0.0918,0.0829,0.0861,0.0826,0.0864,0.0898,0.0929,0.0816,0.0589,0.0589,0.0589,0.0589,0,0,0.1141,0.121,0.1255,0.1283,0.1343,0.1301,0.1269,0.1202,0.1168,0.1104,0.1046,0.0865,0.0816,0.0611,0.0573,0.0658,0.0807,0.064,0.0933,0.1012,0.1045,0.1087,0.0942,0,0,0,0,0]},{"header":{"parameterUnit":"m.s-1","parameterCategory":2,"la1":30.2991,"la2":30.254,"lo1":-89.0895,"lo2":-89.0444,"dy":0.0017,"dx":0.0017,"nx":28,"ny":28,"refTime":"2023-08-07T03:00:00:Z","depth":"2","parameterNumber":3,"parameterNumberName":"V-component_of_CURRENTS"},"data":[0,0,0,0,0,0,0,0,0,0,0,0,0,0,0,0,0,0,0,0,0,0,0,0,0,0,0,0,0,0,0,0,0,0,0,0,0,0,0,0,0,0,0,0,0,0,0,0,0,0,0,0,0,0,0,0,0,0,0.0044,0.0043,0,0.0036,0.0036,0.0037,-0.0003,-0.0005,-0.0006,-0.0008,-0.0155,-0.0157,-0.016,0,0,0,0,0,0,0,0,0,0,0,0,0,0.0062,0.0062,0.0044,0.0043,0.0043,0.0036,0.0036,0.0037,-0.0003,-0.0005,-0.0007,-0.0008,-0.0154,-0.0157,-0.016,0,0,0,0,0,0,0,0,0,0,0,0,0,0.0059,0.0062,0.0044,0.0018,0.0015,0.0036,0.0036,0.0037,-0.0003,-0.0005,-0.0007,-0.0009,-0.0153,-0.0157,-0.0161,-0.0142,0,0,-0.0172,-0.0174,0,0,0,0,0,0,0,0,0.0059,0.0059,0.0022,0.002,0.0017,0.0011,-0.0011,-0.0032,-0.0002,0.0009,-0.0008,-0.001,-0.0114,-0.0121,-0.0109,-0.0149,-0.0155,-0.0173,-0.0175,-0.0177,-0.0178,0,0,0,0,0,0,0,0.0059,0.0059,0.0046,0.0022,0.0019,0.002,0.0017,-0.0014,-0.0039,0.0008,0.0004,-0.0004,-0.0116,-0.0105,-0.0113,-0.0158,-0.0173,-0.0176,-0.0179,-0.018,-0.0242,-0.0242,0,0,0,0,0,0,0.0051,0.006,0.0046,0.0045,0.0028,0.0021,0.0018,0.0019,-0.0036,-0.0046,-0.0002,-0.0006,-0.0097,-0.0109,-0.0119,-0.0133,-0.0177,-0.018,-0.0183,-0.0243,-0.0242,-0.0241,0,0,0,0,0,0,0.0051,0.005,0.0046,0.0047,0.0046,0.0022,0.0024,0.002,0.0009,-0.0043,-0.0056,-0.0013,-0.0099,-0.0113,-0.0141,-0.0139,-0.0182,-0.0186,-0.0244,-0.0243,-0.0242,-0.0143,0,0,0,0,0,0,0.0052,0.0051,0.0051,0.0047,0.0046,0.0058,0.0025,0.0021,0.0006,0.0,-0.0056,-0.007,-0.0102,-0.0135,-0.0145,-0.0145,-0.0189,-0.0245,-0.0243,-0.0242,-0.0147,-0.0138,-0.0131,0,0,0,0,0,0.0053,0.0065,0.0051,0.0049,0.0046,0.0058,0.0059,0.0037,0.0007,0.0017,-0.0018,-0.007,-0.0135,-0.0136,-0.0149,-0.015,-0.0245,-0.0244,-0.0242,-0.015,-0.014,-0.0131,0,0,0,0,0,0,0.0069,0.0062,0.0046,0.0053,0.0052,0.0049,0.0048,0.0033,0.0018,-0.0004,-0.0052,-0.0066,-0.0087,-0.0131,-0.0132,-0.0165,-0.0203,-0.0204,-0.0129,-0.012,-0.0112,-0.0111,-0.0192,0,0,0,0,0,0.0074,0.0084,0.0072,0.0079,0.0071,0.0057,0.0056,0.004,0.0024,0.0014,-0.0021,-0.0064,-0.0084,-0.0113,-0.0136,-0.0156,-0.0183,-0.0168,-0.0161,-0.0154,-0.0161,-0.0178,-0.0172,-0.0236,-0.0236,-0.0236,0,0,0.0067,0.0078,0.0071,0.0083,0.0074,0.0081,0.0052,0.0045,0.0054,-0.0002,-0.0007,-0.0034,-0.0079,-0.0087,-0.0104,-0.0131,-0.0144,-0.0152,-0.0145,-0.0157,-0.0176,-0.0169,-0.0164,-0.0235,-0.0235,-0.0236,0,0,0.0094,0.0079,0.0099,0.0099,0.0093,0.009,0.0084,0.0073,0.0067,0.0066,0.0032,0.0012,-0.0031,-0.0047,-0.0066,-0.0035,-0.0092,-0.0056,-0.0029,-0.0044,-0.0039,-0.0034,-0.0034,-0.0031,-0.0064,-0.0064,-0.0064,0,0.007,0.0113,0.0106,0.013,0.0128,0.0092,0.0106,0.0106,0.0092,0.0095,0.0066,0.0034,-0.0007,-0.0009,0.0002,-0.0017,-0.0034,-0.0056,-0.0032,-0.0029,-0.0027,-0.0028,-0.0025,-0.0059,-0.006,-0.006,-0.0061,0,0.0121,0.0139,0.0147,0.0167,0.0176,0.0173,0.0166,0.0169,0.0149,0.0146,0.014,0.0105,0.0076,0.0067,0.004,0.0039,0.0021,-0.0007,-0.0052,-0.0014,-0.0018,-0.0017,-0.0052,-0.0054,-0.0055,-0.0056,0,0,0.007,0.0158,0.0151,0.018,0.0185,0.0197,0.0217,0.0231,0.0244,0.0218,0.0238,0.0203,0.0166,0.0143,0.0106,0.0088,0.0102,0.0044,0.004,0.0052,0.0079,0.0129,0.0134,0.0076,0.0076,0.0076,0.0079,0,0.0088,0.0162,0.0198,0.0239,0.0266,0.0256,0.029,0.0299,0.0297,0.0309,0.0265,0.0257,0.0199,0.0182,0.0158,0.0118,0.0103,0.0105,0.0031,0.0029,0.0076,0.0137,0.0095,0.0099,0.0079,0.0079,0.0079,0,0.0112,0.0168,0.0226,0.0304,0.0308,0.0325,0.0362,0.0383,0.0394,0.0391,0.0366,0.0331,0.0297,0.0242,0.0181,0.0182,0.0131,0.01,0.0099,0.0106,0.0081,0.005,0.01,0.008,0.008,0.008,0.0079,0,0.0106,0.018,0.0237,0.0247,0.0323,0.0345,0.0368,0.0399,0.0427,0.0425,0.0436,0.0392,0.0363,0.0298,0.0215,0.0194,0.0162,0.0123,0.0127,0.013,0.0059,0.0057,0.0083,0.0083,0.0083,0.0083,0.0083,0,0.0121,0.0159,0.0234,0.0254,0.0312,0.0355,0.0403,0.0424,0.0461,0.0494,0.0456,0.0476,0.037,0.0337,0.0254,0.0207,0.0186,0.0148,0.0138,0.0097,0.0098,0.0038,0.0033,0.0083,0.0083,0.0083,0.0083,0,0.0121,0.0168,0.0228,0.0296,0.0317,0.0347,0.0416,0.0461,0.0483,0.0525,0.0521,0.0529,0.0491,0.0406,0.0319,0.0268,0.0211,0.0192,0.0166,0.0155,0.0179,0.0178,0.0207,0.0208,0.021,0.0211,0.0213,0,0.0141,0.0177,0.0232,0.027,0.0299,0.0352,0.0402,0.0451,0.05,0.0564,0.0592,0.0584,0.0609,0.0534,0.041,0.0311,0.0261,0.0225,0.0182,0.0206,0.0193,0.019,0.0188,0.0126,0.0126,0.0126,0.0127,0,0.0184,0.0184,0.0232,0.0284,0.0334,0.0399,0.0465,0.0515,0.0577,0.0638,0.0726,0.0763,0.0686,0.0585,0.0456,0.0384,0.0243,0.0233,0.025,0.012,0.0135,0.0121,0.012,0.0129,0.0129,0.0128,0.0128,0.0128,0.0194,0.0221,0.0266,0.0318,0.0374,0.045,0.0512,0.0603,0.0703,0.08,0.0832,0.0859,0.0636,0.0485,0.0376,0.0286,0.0306,0.0223,0.0219,0.0216,0.0225,0.0244,0.0261,0.0261,0.0261,0.0262,0.0262,0,0.0214,0.0252,0.0312,0.0372,0.0429,0.0453,0.0567,0.0649,0.0779,0.0848,0.0939,0.0718,0.0613,0.0425,0.0298,0.0224,0.0185,0.0187,0.0111,0.0111,0.011,0.011,0.0117,0.0116,0.0116,0.0115,0,0,0.0227,0.0288,0.0321,0.0417,0.0457,0.053,0.0598,0.0732,0.0807,0.0909,0.0889,0.082,0.0584,0.0386,0.0251,0.0218,0.0202,0.0214,0.034,0.0269,0.0269,0.014,0.0143,0,0,0,0,0]}],[{"header":{"parameterUnit":"m.s-1","parameterCategory":2,"la1":30.2991,"la2":30.254,"lo1":-89.0895,"lo2":-89.0444,"dy":0.0017,"dx":0.0017,"nx":28,"ny":28,"refTime":"2023-08-07T03:00:00:Z","depth":"4","parameterNumber":2,"parameterNumberName":"U-component_of_CURRENTS"},"data":[0,0,0,0,0,0,0,0,0,0,0,0,0,0,0,0,0,0,0,0,0,0,0,0,0,0,0,0,0,0,0,0,0,0,0,0,0,0,0,0,0,0,0,0,0,0,0,0,0,0,0,0,0,0,0,0,0,0,-0.076,-0.0762,0,-0.0824,-0.0824,-0.0823,-0.0891,-0.0894,-0.0896,-0.0899,-0.1018,-0.1019,-0.102,0,0,0,0,0,0,0,0,0,0,0,0,0,-0.0623,-0.0624,-0.076,-0.0762,-0.0764,-0.0824,-0.0824,-0.0823,-0.0891,-0.0894,-0.0897,-0.09,-0.1018,-0.1019,-0.102,0,0,0,0,0,0,0,0,0,0,0,0,0,-0.0669,-0.0625,-0.0759,-0.0817,-0.0825,-0.0824,-0.0824,-0.0823,-0.089,-0.0894,-0.0898,-0.0901,-0.1018,-0.1019,-0.102,-0.0955,0,0,-0.1024,-0.1025,0,0,0,0,0,0,0,0,-0.0666,-0.0672,-0.0807,-0.0814,-0.0822,-0.0868,-0.082,-0.0875,-0.0889,-0.0848,-0.0899,-0.0903,-0.0981,-0.0985,-0.0965,-0.0961,-0.0966,-0.1024,-0.1025,-0.1026,-0.1026,0,0,0,0,0,0,0,-0.0663,-0.0669,-0.0769,-0.0809,-0.0818,-0.0817,-0.0826,-0.0829,-0.0881,-0.0852,-0.0861,-0.0893,-0.0984,-0.0964,-0.0969,-0.0967,-0.1024,-0.1026,-0.1026,-0.1027,-0.1188,-0.1191,0,0,0,0,0,0,-0.0688,-0.0666,-0.0767,-0.0772,-0.077,-0.0818,-0.0827,-0.0836,-0.0881,-0.0895,-0.089,-0.0896,-0.096,-0.0968,-0.0974,-0.1151,-0.1026,-0.1027,-0.1028,-0.1185,-0.1189,-0.1193,0,0,0,0,0,0,-0.0684,-0.0695,-0.0765,-0.0735,-0.0746,-0.0818,-0.0826,-0.0836,-0.0919,-0.0912,-0.0925,-0.0979,-0.0963,-0.0972,-0.1068,-0.1147,-0.1028,-0.1029,-0.118,-0.1186,-0.1191,-0.1344,0,0,0,0,0,0,-0.0679,-0.0692,-0.0718,-0.0736,-0.075,-0.0823,-0.0825,-0.0835,-0.0935,-0.0946,-0.099,-0.0998,-0.0966,-0.1067,-0.107,-0.1147,-0.103,-0.1176,-0.1183,-0.1189,-0.1334,-0.1354,-0.137,0,0,0,0,0,-0.0673,-0.0695,-0.0718,-0.0733,-0.0778,-0.0826,-0.0832,-0.0883,-0.0937,-0.0972,-0.1024,-0.1002,-0.111,-0.107,-0.1073,-0.1153,-0.1173,-0.1181,-0.1189,-0.1326,-0.135,-0.137,0,0,0,0,0,0,-0.0654,-0.0706,-0.0732,-0.0771,-0.0827,-0.0846,-0.0912,-0.094,-0.1001,-0.1049,-0.104,-0.105,-0.1171,-0.1138,-0.1095,-0.1219,-0.114,-0.1149,-0.1244,-0.1266,-0.1284,-0.1256,-0.1031,0,0,0,0,0,-0.0661,-0.0704,-0.0747,-0.0797,-0.0844,-0.0896,-0.0936,-0.0969,-0.1023,-0.1058,-0.1119,-0.1162,-0.1181,-0.1213,-0.1238,-0.1293,-0.1231,-0.1349,-0.1367,-0.1382,-0.1363,-0.1343,-0.1356,-0.1218,-0.1218,-0.1218,0,0,-0.0674,-0.0716,-0.0742,-0.0801,-0.0865,-0.0894,-0.093,-0.1028,-0.1062,-0.106,-0.1195,-0.1247,-0.1218,-0.1294,-0.1342,-0.129,-0.1395,-0.1392,-0.1405,-0.1377,-0.1352,-0.1365,-0.1376,-0.1223,-0.1222,-0.1222,0,0,-0.0708,-0.0773,-0.0811,-0.0856,-0.0963,-0.0974,-0.103,-0.1123,-0.1193,-0.1288,-0.1311,-0.1411,-0.1468,-0.1459,-0.1445,-0.1571,-0.1505,-0.1615,-0.1666,-0.1649,-0.1659,-0.1666,-0.162,-0.1622,-0.1606,-0.1607,-0.1607,0,-0.0725,-0.0769,-0.0836,-0.0879,-0.0933,-0.1022,-0.1066,-0.1112,-0.1233,-0.1313,-0.1365,-0.1513,-0.1518,-0.1555,-0.1603,-0.161,-0.1583,-0.1585,-0.1669,-0.1675,-0.168,-0.163,-0.1631,-0.1615,-0.1614,-0.1613,-0.1612,0,-0.0763,-0.0813,-0.0868,-0.0931,-0.0979,-0.1062,-0.1125,-0.1239,-0.1361,-0.1415,-0.1594,-0.163,-0.1702,-0.1742,-0.17,-0.1766,-0.1731,-0.1707,-0.1606,-0.1703,-0.1645,-0.1643,-0.1627,-0.1624,-0.1621,-0.1619,0,0,-0.0787,-0.0867,-0.0907,-0.0926,-0.1029,-0.1064,-0.1168,-0.1273,-0.1389,-0.1531,-0.1663,-0.1739,-0.1831,-0.182,-0.1839,-0.1832,-0.1858,-0.1797,-0.1793,-0.1735,-0.1814,-0.1608,-0.1584,-0.1864,-0.1865,-0.1865,-0.1763,0,-0.0823,-0.0879,-0.0924,-0.0988,-0.1014,-0.1121,-0.121,-0.1317,-0.1461,-0.1618,-0.1697,-0.1814,-0.1829,-0.1902,-0.1909,-0.1874,-0.1859,-0.1886,-0.174,-0.1734,-0.1526,-0.1577,-0.1866,-0.176,-0.176,-0.1759,-0.1759,0,-0.0878,-0.0881,-0.0956,-0.1015,-0.1059,-0.1144,-0.1339,-0.1419,-0.1612,-0.1721,-0.1858,-0.1916,-0.1952,-0.1954,-0.192,-0.1949,-0.1891,-0.1854,-0.1848,-0.1588,-0.1522,-0.164,-0.1753,-0.1753,-0.1754,-0.1754,-0.1754,0,-0.086,-0.0929,-0.0993,-0.1016,-0.1089,-0.1225,-0.1332,-0.1533,-0.162,-0.1811,-0.1866,-0.1966,-0.198,-0.1965,-0.1887,-0.1912,-0.1821,-0.1826,-0.1584,-0.1569,-0.1715,-0.1707,-0.1782,-0.1782,-0.1782,-0.1782,-0.1783,0,-0.0864,-0.0911,-0.1033,-0.1045,-0.117,-0.1271,-0.1476,-0.1593,-0.1774,-0.1789,-0.1943,-0.1878,-0.1982,-0.193,-0.1894,-0.1708,-0.1811,-0.1575,-0.1524,-0.1787,-0.1788,-0.1713,-0.1707,-0.1779,-0.1779,-0.178,-0.1781,0,-0.083,-0.0912,-0.0954,-0.1088,-0.1166,-0.1289,-0.1509,-0.1608,-0.1792,-0.1804,-0.1823,-0.1822,-0.1668,-0.1744,-0.1663,-0.1641,-0.1534,-0.1443,-0.1703,-0.1671,-0.1298,-0.1302,-0.1159,-0.1151,-0.1144,-0.1138,-0.1133,0,-0.0809,-0.0837,-0.0983,-0.1042,-0.1145,-0.1334,-0.1439,-0.1626,-0.1631,-0.1641,-0.1538,-0.1481,-0.1428,-0.1205,-0.1272,-0.1239,-0.1219,-0.125,-0.1298,-0.1267,-0.1233,-0.1247,-0.126,-0.1122,-0.112,-0.1118,-0.1116,0,-0.0734,-0.0858,-0.089,-0.099,-0.1127,-0.1154,-0.1285,-0.1279,-0.1357,-0.1488,-0.122,-0.1168,-0.0983,-0.0937,-0.0974,-0.0927,-0.13,-0.1177,-0.1192,-0.1237,-0.1221,-0.1197,-0.1217,-0.1092,-0.1096,-0.1098,-0.1099,0,-0.0729,-0.0753,-0.0855,-0.0914,-0.1001,-0.094,-0.1044,-0.0981,-0.1006,-0.1027,-0.0856,-0.0803,-0.0823,-0.075,-0.0713,-0.074,-0.0718,-0.08,-0.0835,-0.0863,-0.0823,-0.0763,-0.0426,0,0,0,0,0,-0.0684,-0.0682,-0.075,-0.0765,-0.0812,-0.0839,-0.0865,-0.0933,-0.0979,-0.0744,-0.0836,-0.0627,-0.0549,-0.0499,-0.0458,-0.0565,-0.0747,-0.0522,-0.0867,-0.0958,-0.0986,-0.0974,0,0,0,0,0,0,-0.0652,-0.0717,-0.0708,-0.0608,-0.058,-0.0569,-0.0575,-0.0611,-0.0481,-0.0557,-0.0477,-0.0592,-0.049,-0.0537,-0.043,-0.0442,-0.0653,-0.0538,-0.0537,-0.0942,-0.0968,-0.099,-0.0987,0,0,0,0,0]},{"header":{"parameterUnit":"m.s-1","parameterCategory":2,"la1":30.2991,"la2":30.254,"lo1":-89.0895,"lo2":-89.0444,"dy":0.0017,"dx":0.0017,"nx":28,"ny":28,"refTime":"2023-08-07T03:00:00:Z","depth":"4","parameterNumber":3,"parameterNumberName":"V-component_of_CURRENTS"},"data":[0,0,0,0,0,0,0,0,0,0,0,0,0,0,0,0,0,0,0,0,0,0,0,0,0,0,0,0,0,0,0,0,0,0,0,0,0,0,0,0,0,0,0,0,0,0,0,0,0,0,0,0,0,0,0,0,0,0,-0.0097,-0.0096,0,-0.0099,-0.0099,-0.01,-0.0088,-0.0087,-0.0087,-0.0086,-0.0051,-0.0051,-0.0051,0,0,0,0,0,0,0,0,0,0,0,0,0,-0.0101,-0.0101,-0.0097,-0.0096,-0.0096,-0.0099,-0.0099,-0.01,-0.0088,-0.0087,-0.0086,-0.0085,-0.0051,-0.0051,-0.0051,0,0,0,0,0,0,0,0,0,0,0,0,0,-0.0106,-0.0101,-0.0097,-0.0086,-0.0085,-0.0098,-0.0099,-0.01,-0.0089,-0.0087,-0.0086,-0.0085,-0.0051,-0.0051,-0.0051,-0.0076,0,0,-0.005,-0.005,0,0,0,0,0,0,0,0,-0.0106,-0.0107,-0.0088,-0.0087,-0.0085,-0.0087,-0.0088,-0.0088,-0.0089,-0.0093,-0.0086,-0.0084,-0.0057,-0.0056,-0.0068,-0.0074,-0.0073,-0.005,-0.005,-0.005,-0.005,0,0,0,0,0,0,0,-0.0106,-0.0107,-0.0104,-0.0088,-0.0086,-0.0087,-0.0086,-0.0088,-0.0086,-0.0093,-0.0091,-0.0082,-0.0056,-0.0069,-0.0067,-0.0072,-0.005,-0.005,-0.005,-0.005,-0.0035,-0.0035,0,0,0,0,0,0,-0.0094,-0.0107,-0.0103,-0.0103,-0.0086,-0.0087,-0.0087,-0.0092,-0.0087,-0.0084,-0.0083,-0.0081,-0.007,-0.0067,-0.0066,-0.0031,-0.005,-0.005,-0.005,-0.0036,-0.0035,-0.0035,0,0,0,0,0,0,-0.0094,-0.0094,-0.0103,-0.0099,-0.0099,-0.0088,-0.0094,-0.0093,-0.0091,-0.0079,-0.0075,-0.008,-0.0068,-0.0066,-0.0056,-0.0032,-0.005,-0.005,-0.0036,-0.0036,-0.0035,-0.0003,0,0,0,0,0,0,-0.0095,-0.0095,-0.0098,-0.0099,-0.0099,-0.0108,-0.0095,-0.0094,-0.0086,-0.0083,-0.0075,-0.0072,-0.0067,-0.0057,-0.0056,-0.0032,-0.005,-0.0036,-0.0036,-0.0035,-0.0004,-0.0001,0.0001,0,0,0,0,0,-0.0095,-0.0099,-0.0099,-0.0098,-0.0103,-0.0108,-0.0109,-0.01,-0.0087,-0.0093,-0.008,-0.0071,-0.0052,-0.0057,-0.0056,-0.0031,-0.0037,-0.0036,-0.0035,-0.0005,-0.0002,0.0001,0,0,0,0,0,0,-0.0103,-0.0098,-0.0097,-0.01,-0.0102,-0.0103,-0.0104,-0.0097,-0.0096,-0.0089,-0.0076,-0.0072,-0.0049,-0.0054,-0.0059,-0.0027,-0.004,-0.0039,-0.0017,-0.0014,-0.0011,-0.002,-0.005,0,0,0,0,0,-0.0106,-0.0108,-0.0106,-0.011,-0.011,-0.0108,-0.0107,-0.0104,-0.0098,-0.0096,-0.0078,-0.0064,-0.0051,-0.0043,-0.0035,-0.0028,-0.0012,-0.001,-0.0007,-0.0005,-0.0012,0.0054,0.0062,-0.0033,-0.0033,-0.0033,0,0,-0.0111,-0.0106,-0.0109,-0.0111,-0.0113,-0.0128,-0.0106,-0.0107,-0.0118,-0.0093,-0.0088,-0.0054,-0.0047,-0.0029,-0.0019,-0.0027,0.0027,-0.0004,-0.0002,-0.0011,0.0055,0.0065,0.0073,-0.0033,-0.0033,-0.0033,0,0,-0.0123,-0.0119,-0.0127,-0.0132,-0.013,-0.0134,-0.0131,-0.0123,-0.0119,-0.0112,-0.0085,-0.0042,-0.0031,-0.0011,-0.0004,0.0012,0.0042,0.0027,0.0034,0.0099,0.0107,0.0115,0.0137,0.0146,0.0027,0.0027,0.0027,0,-0.0129,-0.0145,-0.0131,-0.0143,-0.0155,-0.0137,-0.0161,-0.016,-0.0145,-0.0141,-0.0108,-0.0047,-0.0027,-0.0003,0.0019,0.002,0.0054,0.0024,0.0105,0.0113,0.0121,0.014,0.0151,0.0029,0.0029,0.0028,0.0028,0,-0.0148,-0.0168,-0.0172,-0.0189,-0.0199,-0.0215,-0.0213,-0.0212,-0.0187,-0.017,-0.0121,-0.0066,-0.0025,0.0001,0.0019,0.0085,0.0091,0.0106,0.0101,0.0133,0.015,0.0161,0.0031,0.003,0.003,0.003,0,0,-0.0158,-0.0183,-0.019,-0.0219,-0.0229,-0.0246,-0.0264,-0.0277,-0.0289,-0.0216,-0.0201,-0.012,-0.0046,-0.0032,0.0025,0.0091,0.0185,0.0134,0.0136,0.016,0.0317,0.0177,0.0174,0.024,0.0242,0.0243,0.0304,0,-0.0186,-0.0229,-0.0234,-0.0292,-0.032,-0.0324,-0.0353,-0.0356,-0.0331,-0.0305,-0.0208,-0.0153,-0.0073,-0.0017,0.0064,0.0156,0.0216,0.0165,0.0276,0.0277,0.0156,0.0183,0.025,0.0312,0.0314,0.0316,0.0317,0,-0.0216,-0.024,-0.0304,-0.0365,-0.0379,-0.0413,-0.046,-0.0467,-0.0432,-0.0392,-0.0294,-0.0214,-0.0088,-0.002,0.0163,0.014,0.0232,0.0301,0.0306,0.0167,0.0156,0.0275,0.0335,0.0334,0.0333,0.0331,0.033,0,-0.0244,-0.03,-0.0359,-0.0377,-0.0432,-0.0472,-0.0489,-0.0494,-0.0499,-0.0412,-0.0381,-0.0233,-0.0145,0.0015,0.0168,0.0194,0.034,0.0384,0.0331,0.0321,0.0417,0.0408,0.0502,0.0502,0.0502,0.0502,0.0502,0,-0.0276,-0.0329,-0.0383,-0.0414,-0.05,-0.0505,-0.0568,-0.0563,-0.0532,-0.0518,-0.0395,-0.0349,-0.0119,-0.0015,0.0143,0.0245,0.0326,0.0324,0.0331,0.0425,0.0417,0.0424,0.0414,0.0504,0.0503,0.0503,0.0503,0,-0.0309,-0.0339,-0.042,-0.0489,-0.0521,-0.0571,-0.0617,-0.0644,-0.0595,-0.0565,-0.0519,-0.0411,-0.0286,-0.0127,0.009,0.0174,0.0306,0.0317,0.0361,0.0371,0.0254,0.0245,0.0283,0.0279,0.0275,0.0272,0.0269,0,-0.0332,-0.0371,-0.0479,-0.0536,-0.0576,-0.0639,-0.069,-0.0669,-0.0658,-0.0605,-0.0578,-0.0498,-0.0413,-0.0215,-0.0064,0.0144,0.0176,0.0246,0.03,0.023,0.0235,0.0231,0.0228,0.0263,0.0262,0.0261,0.0261,0,-0.0392,-0.0439,-0.0504,-0.0577,-0.0653,-0.0724,-0.0755,-0.0736,-0.0684,-0.0685,-0.0589,-0.0501,-0.043,-0.0264,-0.0152,0.0018,0.0214,0.0209,0.022,0.0271,0.0207,0.0214,0.0215,0.0248,0.025,0.0251,0.0251,0,-0.0442,-0.0497,-0.0561,-0.0603,-0.0702,-0.0728,-0.0761,-0.0729,-0.0706,-0.0613,-0.0608,-0.0508,-0.0458,-0.0338,-0.0211,-0.0103,-0.0049,0.0053,0.0074,0.0089,-0.0002,-0.0114,-0.017,0,0,0,0,0,-0.0479,-0.0499,-0.0569,-0.0612,-0.0694,-0.071,-0.0766,-0.077,-0.0726,-0.0655,-0.0606,-0.0528,-0.0398,-0.0358,-0.0269,-0.0294,-0.005,-0.019,0.0077,0.0177,0.0191,0.0103,0,0,0,0,0,0,-0.0504,-0.0575,-0.0557,-0.0578,-0.0579,-0.0648,-0.066,-0.0656,-0.0592,-0.056,-0.0492,-0.0489,-0.0371,-0.0421,-0.0251,-0.0236,-0.0052,-0.0148,-0.0146,0.0168,0.0182,0.0194,0.0108,0,0,0,0,0]}]]